TimeMDT,TemperatureF,Dew PointF,Humidity,Sea Level PressureIn,VisibilityMPH,Wind Direction,Wind SpeedMPH,Gust SpeedMPH,PrecipitationIn,Events,Conditions,WindDirDegrees,DateUTC
12:53 AM,37.9,34.0,86,30.23,10.0,NNE,4.6,-,N/A,,Mostly Cloudy,30,2013-10-24 06:53:00
1:53 AM,36.0,32.0,86,30.24,10.0,Calm,Calm,-,N/A,,Clear,0,2013-10-24 07:53:00
2:53 AM,34.0,30.9,89,30.24,10.0,ENE,5.8,-,N/A,,Partly Cloudy,60,2013-10-24 08:53:00
3:53 AM,33.1,30.9,92,30.25,10.0,ENE,3.5,-,N/A,,Clear,60,2013-10-24 09:53:00
4:53 AM,32.0,28.9,88,30.28,10.0,Calm,Calm,-,N/A,,Clear,0,2013-10-24 10:53:00
5:35 AM,30.2,28.4,93,30.31,1.8,Calm,Calm,-,N/A,,Clear,0,2013-10-24 11:35:00
5:42 AM,30.2,28.4,93,30.31,2.5,SSE,3.5,-,N/A,,Clear,150,2013-10-24 11:42:00
5:53 AM,32.0,30.9,96,30.32,5.0,SSE,4.6,-,N/A,,Clear,150,2013-10-24 11:53:00
6:53 AM,33.1,30.9,92,30.34,10.0,SSW,5.8,-,N/A,,Clear,200,2013-10-24 12:53:00
7:53 AM,35.1,33.1,92,30.36,10.0,South,4.6,-,N/A,,Clear,180,2013-10-24 13:53:00
8:53 AM,39.0,36.0,89,30.38,10.0,SSE,10.4,-,N/A,,Clear,160,2013-10-24 14:53:00
9:53 AM,43.0,36.0,76,30.39,10.0,SE,11.5,-,N/A,,Partly Cloudy,140,2013-10-24 15:53:00
10:14 AM,42.8,35.6,76,30.37,10.0,SSE,11.5,-,N/A,,Mostly Cloudy,160,2013-10-24 16:14:00
10:40 AM,44.6,35.6,71,30.38,10.0,SSE,11.5,-,N/A,,Scattered Clouds,150,2013-10-24 16:40:00
10:53 AM,44.1,36.0,73,30.40,10.0,SSE,10.4,-,N/A,,Scattered Clouds,160,2013-10-24 16:53:00
11:53 AM,45.0,36.0,71,30.39,10.0,SSE,10.4,18.4,N/A,,Overcast,160,2013-10-24 17:53:00
12:53 PM,46.0,36.0,68,30.37,10.0,SSE,12.7,-,N/A,,Overcast,150,2013-10-24 18:53:00
1:53 PM,48.0,36.0,63,30.34,10.0,SSE,11.5,-,N/A,,Mostly Cloudy,160,2013-10-24 19:53:00
2:53 PM,48.0,36.0,63,30.33,10.0,SSE,11.5,-,N/A,,Overcast,150,2013-10-24 20:53:00
3:48 PM,48.2,35.6,62,30.30,10.0,SE,10.4,-,N/A,,Mostly Cloudy,130,2013-10-24 21:48:00
3:53 PM,50.0,36.0,59,30.32,10.0,SE,10.4,-,N/A,,Overcast,140,2013-10-24 21:53:00
4:53 PM,48.9,35.1,59,30.32,10.0,SE,12.7,-,N/A,,Overcast,130,2013-10-24 22:53:00
5:53 PM,46.0,35.1,66,30.32,10.0,SE,10.4,-,N/A,,Mostly Cloudy,130,2013-10-24 23:53:00
6:53 PM,42.1,34.0,73,30.35,10.0,SE,6.9,-,N/A,,Partly Cloudy,140,2013-10-25 00:53:00
7:53 PM,39.9,34.0,79,30.37,10.0,SSE,10.4,-,N/A,,Clear,150,2013-10-25 01:53:00
8:53 PM,39.0,34.0,82,30.37,10.0,SSE,10.4,-,N/A,,Clear,150,2013-10-25 02:53:00
9:53 PM,36.0,33.1,89,30.38,10.0,SSE,8.1,-,N/A,,Clear,160,2013-10-25 03:53:00
10:53 PM,35.1,33.1,92,30.36,10.0,South,10.4,-,N/A,,Clear,170,2013-10-25 04:53:00
11:53 PM,35.1,32.0,89,30.36,10.0,South,10.4,-,N/A,,Clear,170,2013-10-25 05:53:00